Baker, MT

2:18 AM MDT on May 25, 2017 (GMT -0600)
Baker Municipal

Weather History for KBHK - January, 2013

Change the Weather History Date:

Wednesday, January 23, 2013

  Actual Average Record
Temperature  
Mean Temperature 8 °F -  
Max Temperature 12 °F 38 °F 54 °F (2005)
Min Temperature 5 °F 0 °F -9 °F (2003)
Degree Days  
Heating Degree Days 56    
Moisture  
Dew Point 2 °F    
Average Humidity 72    
Maximum Humidity 80    
Minimum Humidity 64    
Precipitation  
Precipitation 0.00 in - - ()
Sea Level Pressure  
Sea Level Pressure 30.35 in    
Wind  
Wind Speed 10 mph (East)    
Max Wind Speed 30 mph    
Max Gust Speed 39 mph    
Visibility 10 miles    
Events      
Averages and records for this station are not official NWS values.
T = Trace of Precipitation, MM = Missing Value Source: NWS Daily Summary

Daily Weather History Graph

Daily Weather History Graph

Search for Another Location

Airport or City:

Trip Planner

Search our weather history database for the weather conditions in past years. The results will help you decide how hot, cold, wet, or windy it might be!

Date:

Astronomy

Jan. 23, 2013 Rise Set
Actual Time 7:29 AM MST 4:48 PM MST
Civil Twilight 6:56 AM MST 5:21 PM MST
Nautical Twilight 6:20 AM MST 5:58 PM MST
Astronomical Twilight 5:44 AM MST 6:34 PM MST
Moon 1:58 PM MST (1/23) 4:46 AM MST (1/23)
Length of Visible Light 10h 25m
Length of Day
9h 19m
Waxing Gibbous, 89% of the Moon is Illuminated
Jan 23
Waxing Gibbous
Jan 26
Full
Feb 3
Last Quarter
Feb 10
New
Feb 17
First Quarter

Hourly Weather History & Observations

Time (MST) Temp. Windchill Dew Point Humidity Pressure Visibility Wind Dir Wind Speed Gust Speed Precip Events Conditions
12:51 AM 12.0 °F 2.7 °F 7.0 °F 80% 30.23 in 10.0 mi NNW 5.8 mph - N/A   Clear
1:51 AM 12.0 °F 1.5 °F 6.1 °F 77% 30.25 in 10.0 mi North 6.9 mph - N/A   Clear
2:51 AM 10.9 °F 0.2 °F 5.0 °F 77% 30.27 in 10.0 mi NNE 6.9 mph - N/A   Clear
3:51 AM 10.0 °F -2.9 °F 3.9 °F 76% 30.29 in 10.0 mi North 9.2 mph - N/A   Clear
4:51 AM 7.0 °F -4.5 °F 1.9 °F 80% 30.32 in 10.0 mi NE 6.9 mph - N/A   Clear
5:51 AM 6.1 °F -2.8 °F -0.0 °F 76% 30.35 in 10.0 mi NE 4.6 mph - N/A   Clear
6:51 AM 5.0 °F -5.6 °F -0.9 °F 76% 30.37 in 10.0 mi East 5.8 mph - N/A   Clear
7:51 AM 5.0 °F -2.1 °F -2.0 °F 73% 30.41 in 10.0 mi East 3.5 mph - N/A   Clear
8:51 AM 6.1 °F - -0.9 °F 73% 30.45 in 10.0 mi Calm Calm - N/A   Clear
9:51 AM 6.1 °F -5.6 °F -2.0 °F 69% 30.45 in 10.0 mi East 6.9 mph - N/A   Clear
10:51 AM 7.0 °F -6.6 °F -0.9 °F 70% 30.45 in 10.0 mi East 9.2 mph - N/A   Clear
11:51 AM 8.1 °F -5.3 °F -0.0 °F 70% 30.46 in 10.0 mi ESE 9.2 mph - N/A   Clear
12:51 PM 9.0 °F -5.1 °F -0.0 °F 67% 30.44 in 10.0 mi ESE 10.4 mph - N/A   Clear
2:51 PM 10.9 °F -4.7 °F 1.0 °F 64% 30.40 in 10.0 mi ESE 13.8 mph - N/A   Clear
3:51 PM 10.0 °F -5.2 °F 1.9 °F 70% 30.41 in 10.0 mi ESE 12.7 mph - N/A   Clear
4:51 PM 10.9 °F -6.5 °F 1.9 °F 67% 30.41 in 10.0 mi ESE 17.3 mph - N/A   Clear
5:51 PM 10.9 °F -8.3 °F 1.9 °F 67% 30.38 in 10.0 mi ESE 21.9 mph - N/A   Clear
6:51 PM 10.0 °F -8.1 °F 1.0 °F 67% 30.38 in 10.0 mi ESE 18.4 mph - N/A   Clear
7:51 PM 10.0 °F -9.5 °F 1.9 °F 70% 30.33 in 10.0 mi ESE 21.9 mph 28.8 mph N/A   Clear
8:51 PM 10.0 °F -10.4 °F 1.9 °F 70% 30.30 in 10.0 mi SE 24.2 mph 33.4 mph N/A   Clear
9:51 PM 10.0 °F -10.8 °F 1.9 °F 70% 30.30 in 10.0 mi SE 25.3 mph - N/A   Clear
10:51 PM 10.9 °F -9.6 °F 1.9 °F 67% 30.26 in 10.0 mi SE 25.3 mph 35.7 mph N/A   Clear
11:51 PM 10.9 °F -11.0 °F 3.0 °F 70% 30.21 in 10.0 mi SE 29.9 mph 39.1 mph N/A   Clear